Orbital Elements at Epoch 2455927.5 (2012-Jan-01.0) TDB
Reference: JPL 4 (heliocentric ecliptic J2000)
Element | Value | Uncertainty (1-sigma) | Units |
e | .9267098193337804 | 0.0020846 | |
a | 2.525036085478622 | 0.053616 | au |
q | .1850603508934522 | 0.001334 | au |
i | 8.617800315725166 | 0.08236 | deg |
node | 82.08234613022127 | 0.098015 | deg |
peri | 152.8323223763488 | 0.037567 | deg |
M | 350.2488549833964 | 0.33932 | deg |
tp | 2455967.196564688020 (2012-Feb-09.69656469) | 0.117 | TDB |
period | 1465.547201211118 4.01 | 46.679 0.1278 | d yr |
n | .2456420371193085 | 0.0078239 | deg/d |
Q | 4.865011820063793 | 0.1033 | au |
|
| | Orbit Determination Parameters
Additional Information
|